| time (UTC) | temp F | wind direction | speed knots | gust knots | rain 1hr in | rain 24hr in | rain mn in | humidity % | barometer mb |
| 20260504213932 | 70 | 258 | 3.5 | 12.2 | 0.00 | 0.00 | 0.00 | 34 | 1038.3 |
| 20260504213427 | 71 | 212 | 7.0 | 9.6 | 0.00 | 0.00 | 0.00 | 33 | 1038.5 |
| 20260504212925 | 71 | 225 | 3.5 | 7.8 | 0.00 | 0.00 | 0.00 | 33 | 1038.4 |
| 20260504212421 | 71 | 187 | 5.2 | 8.7 | 0.00 | 0.00 | 0.00 | 34 | 1038.4 |
| 20260504211919 | 71 | 225 | 6.1 | 7.8 | 0.00 | 0.00 | 0.00 | 33 | 1038.5 |
| 20260504211415 | 71 | 225 | 7.8 | 11.3 | 0.00 | 0.00 | 0.00 | 33 | 1038.5 |
| 20260504210912 | 71 | 214 | 5.2 | 7.8 | 0.00 | 0.00 | 0.00 | 33 | 1038.4 |
| 20260504210409 | 71 | 214 | 3.5 | 8.7 | 0.00 | 0.00 | 0.00 | 34 | 1038.6 |
| 20260504205906 | 70 | 246 | 5.2 | 9.6 | 0.00 | 0.00 | 0.00 | 34 | 1038.5 |
| 20260504205404 | 69 | 236 | 5.2 | 13.0 | 0.00 | 0.00 | 0.00 | 35 | 1038.7 |
| 20260504204902 | 69 | 223 | 6.1 | 13.9 | 0.00 | 0.00 | 0.00 | 34 | 1039.0 |
| 20260504204400 | 69 | 217 | 3.5 | 8.7 | 0.00 | 0.00 | 0.00 | 35 | 1038.9 |
| 20260504203859 | 70 | 215 | 5.2 | 14.8 | 0.00 | 0.00 | 0.00 | 34 | 1038.8 |
| 20260504203356 | 69 | 228 | 6.1 | 14.8 | 0.00 | 0.00 | 0.00 | 35 | 1038.8 |
| 20260504202852 | 71 | 204 | 6.1 | 11.3 | 0.00 | 0.00 | 0.00 | 33 | 1038.8 |
| 20260504202349 | 72 | 242 | 10.4 | 12.2 | 0.00 | 0.00 | 0.00 | 33 | 1038.8 |
| 20260504201845 | 71 | 190 | 7.8 | 12.2 | 0.00 | 0.00 | 0.00 | 33 | 1039.0 |
| 20260504201343 | 71 | 204 | 7.0 | 12.2 | 0.00 | 0.00 | 0.00 | 34 | 1039.0 |
| 20260504200840 | 71 | 238 | 6.1 | 11.3 | 0.00 | 0.00 | 0.00 | 34 | 1039.3 |
| 20260504200337 | 71 | 221 | 6.1 | 12.2 | 0.00 | 0.00 | 0.00 | 34 | 1039.0 |
| 20260504195833 | 70 | 236 | 7.8 | 15.6 | 0.00 | 0.00 | 0.00 | 33 | 1038.9 |
| 20260504195329 | 70 | 238 | 6.1 | 15.6 | 0.00 | 0.00 | 0.00 | 34 | 1039.2 |
| 20260504194826 | 70 | 215 | 6.1 | 13.9 | 0.00 | 0.00 | 0.00 | 34 | 1039.3 |
| 20260504194322 | 70 | 209 | 5.2 | 9.6 | 0.00 | 0.00 | 0.00 | 34 | 1039.4 |
| 20260504193818 | 71 | 248 | 6.1 | 9.6 | 0.00 | 0.00 | 0.00 | 33 | 1039.6 |
| 20260504193316 | 69 | 241 | 4.3 | 12.2 | 0.00 | 0.00 | 0.00 | 35 | 1039.3 |
| 20260504192814 | 70 | 196 | 7.0 | 13.9 | 0.00 | 0.00 | 0.00 | 33 | 1039.5 |
| 20260504192312 | 70 | 291 | 10.4 | 13.9 | 0.00 | 0.00 | 0.00 | 34 | 1039.7 |
| 20260504191810 | 69 | 231 | 9.6 | 15.6 | 0.00 | 0.00 | 0.00 | 34 | 1039.6 |
| 20260504191307 | 69 | 224 | 10.4 | 18.2 | 0.00 | 0.00 | 0.00 | 34 | 1039.6 |
| 20260504190802 | 70 | 234 | 6.1 | 8.7 | 0.00 | 0.00 | 0.00 | 35 | 1039.6 |
| 20260504190259 | 69 | 211 | 12.2 | 21.7 | 0.00 | 0.00 | 0.00 | 34 | 1039.6 |
| 20260504185755 | 69 | 226 | 9.6 | 13.9 | 0.00 | 0.00 | 0.00 | 34 | 1039.7 |
| 20260504185252 | 69 | 196 | 8.7 | 16.5 | 0.00 | 0.00 | 0.00 | 35 | 1039.6 |
| 20260504184748 | 69 | 244 | 11.3 | 15.6 | 0.00 | 0.00 | 0.00 | 34 | 1039.7 |
| 20260504184244 | 70 | 248 | 9.6 | 15.6 | 0.00 | 0.00 | 0.00 | 35 | 1039.8 |
| 20260504183740 | 69 | 217 | 10.4 | 13.9 | 0.00 | 0.00 | 0.00 | 35 | 1039.9 |
| 20260504183237 | 69 | 213 | 5.2 | 8.7 | 0.00 | 0.00 | 0.00 | 35 | 1039.7 |
| 20260504182735 | 68 | 188 | 7.8 | 15.6 | 0.00 | 0.00 | 0.00 | 35 | 1039.9 |
| 20260504182232 | 69 | 199 | 10.4 | 13.9 | 0.00 | 0.00 | 0.00 | 35 | 1040.1 |
| 20260504181730 | 68 | 217 | 12.2 | 14.8 | 0.00 | 0.00 | 0.00 | 35 | 1039.8 |
| 20260504181227 | 69 | 208 | 7.0 | 13.0 | 0.00 | 0.00 | 0.00 | 35 | 1040.0 |
| 20260504180726 | 69 | 213 | 8.7 | 14.8 | 0.00 | 0.00 | 0.00 | 34 | 1040.1 |
| 20260504180224 | 69 | 219 | 10.4 | 14.8 | 0.00 | 0.00 | 0.00 | 34 | 1039.8 |
| 20260504175722 | 69 | 242 | 7.0 | 14.8 | 0.00 | 0.00 | 0.00 | 35 | 1040.1 |
| 20260504175218 | 67 | 206 | 9.6 | 16.5 | 0.00 | 0.00 | 0.00 | 34 | 1040.2 |
| 20260504174716 | 68 | 242 | 7.8 | 14.8 | 0.00 | 0.00 | 0.00 | 34 | 1040.3 |
| 20260504174214 | 68 | 202 | 6.1 | 16.5 | 0.00 | 0.00 | 0.00 | 35 | 1040.4 |
| 20260504173710 | 68 | 221 | 5.2 | 13.0 | 0.00 | 0.00 | 0.00 | 36 | 1040.3 |
| 20260504173207 | 67 | 200 | 7.8 | 12.2 | 0.00 | 0.00 | 0.00 | 36 | 1040.4 |
| 20260504172704 | 66 | 214 | 7.8 | 14.8 | 0.00 | 0.00 | 0.00 | 36 | 1040.3 |
| 20260504172200 | 67 | 236 | 7.0 | 13.9 | 0.00 | 0.00 | 0.00 | 36 | 1040.7 |
| 20260504171657 | 68 | 235 | 7.0 | 12.2 | 0.00 | 0.00 | 0.00 | 35 | 1040.3 |
| 20260504171154 | 67 | 237 | 13.0 | 18.2 | 0.00 | 0.00 | 0.00 | 35 | 1040.5 |
| 20260504170650 | 67 | 181 | 8.7 | 13.0 | 0.00 | 0.00 | 0.00 | 35 | 1040.5 |
| 20260504170148 | 66 | 255 | 6.1 | 12.2 | 0.00 | 0.00 | 0.00 | 36 | 1040.8 |
| 20260504151033 | 60 | 222 | 3.5 | 11.3 | 0.00 | 0.00 | 0.00 | 38 | 1042.1 |
| 20260504150531 | 61 | 216 | 11.3 | 13.9 | 0.00 | 0.00 | 0.00 | 37 | 1042.3 |
| 20260504140956 | 56 | 191 | 4.3 | 7.0 | 0.00 | 0.00 | 0.00 | 42 | 1042.8 |
| 20260504140453 | 55 | 239 | 4.3 | 9.6 | 0.00 | 0.00 | 0.00 | 42 | 1042.9 |
| 20260504130418 | 53 | 231 | 7.8 | 11.3 | 0.00 | 0.00 | 0.00 | 46 | 1043.3 |
| 20260504110304 | 45 | 248 | 0.9 | 1.7 | 0.00 | 0.00 | 0.00 | 61 | 1043.4 |
| 20260504100223 | 41 | 242 | 0.9 | 1.7 | 0.00 | 0.00 | 0.00 | 67 | 1043.2 |
| 20260504081616 | 43 | 238 | 2.6 | 2.6 | 0.00 | 0.00 | 0.00 | 63 | 1043.5 |
| 20260504081111 | 44 | 252 | 0.9 | 3.5 | 0.00 | 0.00 | 0.00 | 62 | 1043.4 |
| 20260504080609 | 43 | 253 | 1.7 | 2.6 | 0.00 | 0.00 | 0.00 | 63 | 1043.3 |
| 20260504080105 | 43 | 255 | 0.0 | 2.6 | 0.00 | 0.00 | 0.00 | 63 | 1043.3 |
| 20260504050415 | 46 | 261 | 1.7 | 2.6 | 0.00 | 0.00 | 0.00 | 57 | 1043.0 |
| 20260504045913 | 46 | 247 | 2.6 | 2.6 | 0.00 | 0.00 | 0.00 | 56 | 1043.2 |
| 20260504045408 | 46 | 273 | 1.7 | 1.7 | 0.00 | 0.00 | 0.00 | 56 | 1043.1 |
| 20260504044905 | 46 | 248 | 1.7 | 2.6 | 0.00 | 0.00 | 0.00 | 56 | 1043.0 |
| 20260504044402 | 45 | 274 | 0.9 | 1.7 | 0.00 | 0.00 | 0.00 | 57 | 1042.9 |
| 20260504043900 | 46 | 268 | 1.7 | 1.7 | 0.00 | 0.00 | 0.00 | 56 | 1042.9 |
| 20260504043356 | 46 | 266 | 1.7 | 2.6 | 0.00 | 0.00 | 0.00 | 56 | 1042.9 |
| 20260504042854 | 46 | 261 | 1.7 | 1.7 | 0.00 | 0.00 | 0.00 | 56 | 1043.0 |
| 20260504042350 | 45 | 256 | 1.7 | 1.7 | 0.00 | 0.00 | 0.00 | 56 | 1042.7 |
| 20260504041846 | 45 | 266 | 1.7 | 1.7 | 0.00 | 0.00 | 0.00 | 57 | 1042.9 |
| 20260504041343 | 46 | 268 | 0.0 | 0.9 | 0.00 | 0.00 | 0.00 | 57 | 1042.8 |
| 20260504040839 | 46 | 263 | 0.9 | 1.7 | 0.00 | 0.00 | 0.00 | 56 | 1042.7 |
| 20260504040337 | 46 | 252 | 0.9 | 1.7 | 0.00 | 0.00 | 0.00 | 55 | 1042.8 |
| 20260504035832 | 46 | 247 | 2.6 | 2.6 | 0.00 | 0.00 | 0.00 | 55 | 1042.6 |
| 20260504035330 | 46 | 264 | 1.7 | 2.6 | 0.00 | 0.00 | 0.00 | 55 | 1042.6 |
| 20260504034827 | 46 | 236 | 2.6 | 3.5 | 0.00 | 0.00 | 0.00 | 55 | 1042.7 |
| 20260504034325 | 46 | 265 | 1.7 | 2.6 | 0.00 | 0.00 | 0.00 | 56 | 1042.8 |
| 20260504033821 | 47 | 260 | 0.9 | 2.6 | 0.00 | 0.00 | 0.00 | 55 | 1042.7 |
| 20260504033319 | 47 | 238 | 3.5 | 3.5 | 0.00 | 0.00 | 0.00 | 55 | 1042.5 |
| 20260504032815 | 47 | 239 | 1.7 | 5.2 | 0.00 | 0.00 | 0.00 | 55 | 1042.7 |
| 20260504032313 | 47 | 235 | 2.6 | 3.5 | 0.00 | 0.00 | 0.00 | 53 | 1042.8 |
| 20260504031810 | 47 | 266 | 1.7 | 5.2 | 0.00 | 0.00 | 0.00 | 53 | 1042.7 |
| 20260504031307 | 47 | 234 | 3.5 | 5.2 | 0.00 | 0.00 | 0.00 | 53 | 1042.6 |
| 20260504030803 | 47 | 238 | 2.6 | 3.5 | 0.00 | 0.00 | 0.00 | 53 | 1042.9 |
| 20260504030300 | 47 | 256 | 1.7 | 3.5 | 0.00 | 0.00 | 0.00 | 53 | 1042.8 |
| 20260504025756 | 47 | 264 | 0.9 | 1.7 | 0.00 | 0.00 | 0.00 | 53 | 1042.5 |
| 20260504025253 | 48 | 267 | 0.9 | 1.7 | 0.00 | 0.00 | 0.00 | 52 | 1042.6 |
| 20260504024750 | 48 | 240 | 1.7 | 2.6 | 0.00 | 0.00 | 0.00 | 51 | 1042.5 |
| 20260504024247 | 48 | 268 | 1.7 | 2.6 | 0.00 | 0.00 | 0.00 | 50 | 1042.7 |
| 20260504023744 | 48 | 254 | 1.7 | 2.6 | 0.00 | 0.00 | 0.00 | 50 | 1042.7 |
| 20260504023240 | 48 | 258 | 2.6 | 3.5 | 0.00 | 0.00 | 0.00 | 51 | 1042.6 |
| 20260504022736 | 48 | 267 | 1.7 | 2.6 | 0.00 | 0.00 | 0.00 | 52 | 1042.7 |
| 20260504022232 | 48 | 266 | 1.7 | 2.6 | 0.00 | 0.00 | 0.00 | 51 | 1042.7 |
| 20260504021730 | 49 | 251 | 1.7 | 2.6 | 0.00 | 0.00 | 0.00 | 50 | 1042.5 |
| 20260504021227 | 49 | 244 | 2.6 | 5.2 | 0.00 | 0.00 | 0.00 | 48 | 1042.8 |
| 20260504020723 | 48 | 248 | 1.7 | 2.6 | 0.00 | 0.00 | 0.00 | 49 | 1042.7 |
| 20260504020220 | 49 | 263 | 0.9 | 1.7 | 0.00 | 0.00 | 0.00 | 50 | 1042.7 |
| 20260504015716 | 48 | 230 | 0.9 | 1.7 | 0.00 | 0.00 | 0.00 | 51 | 1042.7 |
| 20260504015213 | 48 | 249 | 0.9 | 1.7 | 0.00 | 0.00 | 0.00 | 51 | 1042.8 |
| 20260504014708 | 48 | 250 | 0.0 | 0.0 | 0.00 | 0.00 | 0.00 | 51 | 1042.6 |
| 20260504014206 | 49 | 264 | 0.9 | 1.7 | 0.00 | 0.00 | 0.00 | 50 | 1042.5 |
| 20260504013703 | 49 | 249 | 0.0 | 1.7 | 0.00 | 0.00 | 0.00 | 49 | 1042.6 |
| 20260504013200 | 50 | 249 | 0.9 | 1.7 | 0.00 | 0.00 | 0.00 | 49 | 1042.7 |
| 20260504012657 | 49 | 249 | 0.9 | 1.7 | 0.00 | 0.00 | 0.00 | 50 | 1042.4 |
| 20260504012155 | 49 | 249 | 0.9 | 0.9 | 0.00 | 0.00 | 0.00 | 50 | 1042.2 |
| 20260504011652 | 49 | 249 | 0.0 | 0.9 | 0.00 | 0.00 | 0.00 | 49 | 1042.3 |
| 20260504011148 | 49 | 249 | 0.9 | 0.9 | 0.00 | 0.00 | 0.00 | 48 | 1042.2 |
| 20260504010644 | 50 | 254 | 0.9 | 1.7 | 0.00 | 0.00 | 0.00 | 48 | 1042.1 |
| 20260504010139 | 49 | 273 | 0.0 | 0.9 | 0.00 | 0.00 | 0.00 | 48 | 1042.1 |
| 20260504005637 | 50 | 271 | 0.0 | 0.9 | 0.00 | 0.00 | 0.00 | 46 | 1042.2 |
| 20260504005133 | 50 | 273 | 0.9 | 0.9 | 0.00 | 0.00 | 0.00 | 47 | 1041.9 |
| 20260504004632 | 50 | 272 | 0.9 | 1.7 | 0.00 | 0.00 | 0.00 | 46 | 1042.0 |
| 20260504004129 | 49 | 278 | 1.7 | 1.7 | 0.00 | 0.00 | 0.00 | 48 | 1042.2 |
| 20260504003625 | 50 | 274 | 1.7 | 1.7 | 0.00 | 0.00 | 0.00 | 48 | 1042.1 |
| 20260504003122 | 50 | 278 | 2.6 | 2.6 | 0.00 | 0.00 | 0.00 | 48 | 1042.1 |
| 20260504002618 | 50 | 273 | 0.9 | 1.7 | 0.00 | 0.00 | 0.00 | 47 | 1041.8 |
| 20260504002116 | 51 | 275 | 0.9 | 1.7 | 0.00 | 0.00 | 0.00 | 47 | 1041.8 |
| 20260504001614 | 51 | 276 | 0.9 | 1.7 | 0.00 | 0.00 | 0.00 | 45 | 1041.9 |
| 20260504001109 | 52 | 275 | 0.9 | 0.9 | 0.00 | 0.00 | 0.00 | 44 | 1041.8 |
| 20260504000607 | 53 | 270 | 0.9 | 1.7 | 0.00 | 0.00 | 0.00 | 42 | 1041.5 |
| 20260504000104 | 53 | 253 | 2.6 | 2.6 | 0.00 | 0.00 | 0.00 | 40 | 1041.7 |
| 20260503235603 | 54 | 267 | 2.6 | 2.6 | 0.00 | 0.00 | 0.00 | 39 | 1041.7 |
| 20260503235059 | 54 | 266 | 2.6 | 5.2 | 0.00 | 0.00 | 0.00 | 39 | 1041.8 |
| 20260503234557 | 54 | 246 | 3.5 | 5.2 | 0.00 | 0.00 | 0.00 | 38 | 1041.4 |
| 20260503234055 | 54 | 266 | 2.6 | 3.5 | 0.00 | 0.00 | 0.00 | 38 | 1041.7 |
| 20260503233551 | 54 | 266 | 0.9 | 2.6 | 0.00 | 0.00 | 0.00 | 39 | 1041.4 |
| 20260503233047 | 55 | 271 | 1.7 | 6.1 | 0.00 | 0.00 | 0.00 | 39 | 1041.5 |
| 20260503232544 | 55 | 266 | 5.2 | 7.0 | 0.00 | 0.00 | 0.00 | 37 | 1041.7 |
| 20260503232042 | 55 | 254 | 1.7 | 2.6 | 0.00 | 0.00 | 0.00 | 38 | 1041.7 |
| 20260503231539 | 55 | 275 | 1.7 | 3.5 | 0.00 | 0.00 | 0.00 | 37 | 1041.5 |
| 20260503231036 | 55 | 266 | 3.5 | 5.2 | 0.00 | 0.00 | 0.00 | 37 | 1041.7 |
| 20260503230532 | 55 | 282 | 5.2 | 7.8 | 0.00 | 0.00 | 0.00 | 37 | 1041.7 |
| 20260503230030 | 55 | 257 | 3.5 | 5.2 | 0.00 | 0.00 | 0.00 | 36 | 1041.3 |
| 20260503225527 | 55 | 247 | 3.5 | 5.2 | 0.00 | 0.00 | 0.00 | 36 | 1041.3 |
| 20260503225021 | 55 | 285 | 3.5 | 7.0 | 0.00 | 0.00 | 0.00 | 37 | 1041.5 |
| 20260503224519 | 56 | 277 | 5.2 | 9.6 | 0.00 | 0.00 | 0.00 | 36 | 1041.5 |
| 20260503224011 | 56 | 272 | 7.8 | 13.0 | 0.00 | 0.00 | 0.00 | 35 | 1041.4 |
| 20260503223509 | 56 | 193 | 6.1 | 8.7 | 0.00 | 0.00 | 0.00 | 36 | 1041.3 |
| 20260503223004 | 56 | 283 | 4.3 | 8.7 | 0.00 | 0.00 | 0.00 | 36 | 1041.3 |
| 20260503222503 | 56 | 269 | 4.3 | 9.6 | 0.00 | 0.00 | 0.00 | 36 | 1041.4 |
| 20260503222001 | 56 | 249 | 5.2 | 7.0 | 0.00 | 0.00 | 0.00 | 36 | 1041.3 |
| 20260503221459 | 55 | 291 | 6.1 | 9.6 | 0.00 | 0.00 | 0.00 | 36 | 1041.3 |
| 20260503220955 | 56 | 259 | 7.0 | 13.9 | 0.00 | 0.00 | 0.00 | 35 | 1041.5 |
| 20260503220446 | 55 | 277 | 6.1 | 7.0 | 0.00 | 0.00 | 0.00 | 36 | 1041.2 |
| 20260503215943 | 55 | 248 | 4.3 | 11.3 | 0.00 | 0.00 | 0.00 | 37 | 1041.8 |
| 20260503215439 | 56 | 274 | 4.3 | 9.6 | 0.00 | 0.00 | 0.00 | 36 | 1041.7 |
| 20260503214937 | 56 | 234 | 7.8 | 13.0 | 0.00 | 0.00 | 0.00 | 35 | 1041.5 |
| 20260503214435 | 55 | 268 | 5.2 | 13.9 | 0.00 | 0.00 | 0.00 | 36 | 1041.3 |